Date String (YYYY-MM-DD hh:mm:ss) UTC,Instrument flags,absolute air pressure of the measurement (hPa),sample flow rate (lpm),inlet stack bypass flow (lpm),air temperature of the measurement (°C),ambient temperature measured by the external sensor (°C),aerosol sample conditioner tube jacket temperature (°C),OPC LED temperature (°C),internal box temperature (°C),relative humidity of the measurement (%),span deviation,mass concentration of particles derived from Lorenz-Mie calculation of OPC scattering (μg/m³),mass concentration of particles derived from Lorenz-Mie calculation of OPC scattering (μg/m³),mass concentration of particles derived from Lorenz-Mie calculation of OPC scattering (μg/m³)
DateTimeUTC,F1_M11,P_M11,Q1_M11,Q2_M11,T1_M11,T2_M11,T3_M11,T4_M11,T5_M11,U1_M11,ZSPAN_M11,X2_M11,X0_M11,X1_M11
2023-07-05 01:00:00,SystemResetWarning,0834.0,4.99,000.00,030.2,026.8,000.0,038.5,030.9,32.4,0000.0,0004.44,0008.60,0003.84
2023-07-05 01:01:00,SystemResetWarning,0834.0,4.99,000.00,030.2,027.1,000.0,038.5,031.0,32.7,0000.0,0004.45,0008.64,0003.85
2023-07-05 01:02:00,SystemResetWarning,0834.1,5.00,000.00,030.2,027.4,000.0,038.5,031.1,32.6,0000.0,0004.45,0008.71,0003.83
2023-07-05 01:03:00,SystemResetWarning,0834.1,5.00,000.00,030.2,027.7,000.0,038.5,031.1,32.6,0000.0,0004.44,0009.10,0003.81
2023-07-05 01:04:00,SystemResetWarning,0834.1,5.01,000.00,030.2,027.9,000.0,038.5,031.2,32.7,0000.0,0004.41,0009.18,0003.79
2023-07-05 01:05:00,SystemResetWarning,0834.1,4.99,000.00,030.2,028.0,000.0,038.6,031.2,32.9,0000.0,0004.37,0008.69,0003.77
2023-07-05 01:06:00,SystemResetWarning,0834.1,4.99,000.00,030.2,028.2,000.0,038.6,031.3,33.0,0000.0,0004.34,0008.46,0003.76
2023-07-05 01:07:00,SystemResetWarning,0834.1,5.00,000.00,030.3,028.0,000.0,038.6,031.3,33.1,0000.0,0004.32,0008.65,0003.75
2023-07-05 01:08:00,SystemResetWarning,0834.1,5.00,000.00,030.2,026.3,000.0,038.4,031.1,33.3,0000.0,0004.31,0008.71,0003.75
2023-07-05 01:09:00,SystemResetWarning,0834.1,5.00,000.00,030.1,025.3,000.0,038.3,030.9,33.6,0000.0,0004.34,0008.82,0003.76
2023-07-05 01:10:00,SystemResetWarning,0834.3,5.02,000.00,030.0,025.3,000.0,038.3,030.6,34.0,0000.0,0004.39,0008.92,0003.77
2023-07-05 01:11:00,SystemResetWarning,0834.2,4.99,000.00,029.9,025.6,000.0,038.3,030.6,34.3,0000.0,0004.46,0010.00,0003.78
2023-07-05 01:12:00,SystemResetWarning,0834.4,5.00,000.00,029.8,026.0,000.0,038.3,030.7,34.5,0000.0,0004.47,0010.07,0003.78
2023-07-05 01:13:00,SystemResetWarning,0834.4,5.01,000.00,029.8,026.4,000.0,038.3,030.8,34.7,0000.0,0004.52,0010.56,0003.80
2023-07-05 01:14:00,SystemResetWarning,0834.4,5.00,000.00,029.8,026.8,000.0,038.3,030.8,34.9,0000.0,0004.57,0010.76,0003.82
2023-07-05 01:15:00,SystemResetWarning,0834.4,4.98,000.00,029.8,027.1,000.0,038.3,030.9,34.9,0000.0,0004.58,0010.62,0003.82
2023-07-05 01:16:00,SystemResetWarning,0834.2,5.00,000.00,029.8,027.4,000.0,038.3,031.0,34.7,0000.0,0004.60,0010.93,0003.83
2023-07-05 01:17:00,SystemResetWarning,0834.0,5.01,000.00,029.8,027.6,000.0,038.3,031.0,34.7,0000.0,0004.68,0011.31,0003.84
2023-07-05 01:18:00,SystemResetWarning,0834.0,5.01,000.00,029.8,027.8,000.0,038.3,031.0,34.8,0000.0,0004.74,0011.28,0003.87
2023-07-05 01:19:00,SystemResetWarning,0833.8,4.96,000.00,029.8,027.9,000.0,038.3,031.1,35.0,0000.0,0004.79,0011.35,0003.89
2023-07-05 01:20:00,SystemResetWarning,0833.8,5.05,000.00,029.9,028.0,000.0,038.3,031.2,34.8,0000.0,0004.80,0011.34,0003.89
2023-07-05 01:21:00,SystemResetWarning,0833.8,4.96,000.00,030.0,028.2,000.0,038.3,031.3,34.8,0000.0,0004.77,0011.27,0003.90
2023-07-05 01:22:00,SystemResetWarning,0833.8,5.03,000.00,030.1,028.3,000.0,038.3,031.3,34.8,0000.0,0004.73,0010.34,0003.89
2023-07-05 01:23:00,SystemResetWarning,0833.9,4.98,000.00,030.2,027.2,000.0,038.2,031.2,34.8,0000.0,0004.73,0010.36,0003.90
2023-07-05 01:24:00,SystemResetWarning,0833.9,5.01,000.00,030.1,025.5,000.0,038.1,031.0,34.9,0000.0,0004.76,0010.13,0003.91
2023-07-05 01:25:00,SystemResetWarning,0833.9,4.99,000.00,030.1,025.1,000.0,038.1,030.8,35.2,0000.0,0004.75,0009.41,0003.93
2023-07-05 01:26:00,SystemResetWarning,0833.9,5.02,000.00,030.1,025.3,000.0,038.1,030.7,35.5,0000.0,0004.79,0009.47,0003.95
2023-07-05 01:27:00,SystemResetWarning,0834.0,5.00,000.00,030.3,025.8,000.0,038.2,030.8,35.2,0000.0,0004.83,0009.37,0003.97
2023-07-05 01:28:00,SystemResetWarning,0834.3,4.99,000.00,030.6,026.2,000.0,038.2,031.0,34.6,0000.0,0004.83,0009.15,0003.99
2023-07-05 01:29:00,SystemResetWarning,0834.4,4.98,000.00,030.8,026.6,000.0,038.3,031.1,34.3,0000.0,0004.85,0009.36,0003.99
2023-07-05 01:30:00,SystemResetWarning,0834.5,5.01,000.00,030.9,026.9,000.0,038.4,031.1,34.1,0000.0,0004.86,0009.55,0003.98
2023-07-05 01:31:00,SystemResetWarning,0834.7,5.01,000.00,031.0,027.2,000.0,038.5,031.1,33.9,0000.0,0004.86,0009.66,0003.98
2023-07-05 01:32:00,SystemResetWarning,0834.8,5.01,000.00,031.0,027.4,000.0,038.6,031.2,33.8,0000.0,0004.85,0009.67,0003.95
2023-07-05 01:33:00,SystemResetWarning,0835.1,5.00,000.00,031.1,027.6,000.0,038.7,031.2,33.8,0000.0,0004.83,0009.57,0003.95
2023-07-05 01:34:00,SystemResetWarning,0835.1,4.98,000.00,031.1,027.8,000.0,038.7,031.3,33.8,0000.0,0004.81,0009.53,0003.95
2023-07-05 01:35:00,SystemResetWarning,0834.9,5.00,000.00,031.1,027.9,000.0,038.8,031.3,33.8,0000.0,0004.80,0009.42,0003.94
2023-07-05 01:36:00,SystemResetWarning,0835.0,5.02,000.00,031.1,028.0,000.0,038.9,031.3,33.7,0000.0,0004.78,0009.42,0003.93
2023-07-05 01:37:00,SystemResetWarning,0835.0,5.00,000.00,031.1,028.1,000.0,038.9,031.4,33.5,0000.0,0004.75,0009.43,0003.91
2023-07-05 01:38:00,SystemResetWarning,0834.9,4.99,000.00,031.1,028.2,000.0,039.0,031.4,33.5,0000.0,0004.75,0009.44,0003.90
2023-07-05 01:39:00,SystemResetWarning,0835.0,4.99,000.00,031.1,028.3,000.0,039.0,031.5,33.4,0000.0,0004.77,0009.43,0003.91
2023-07-05 01:40:00,SystemResetWarning,0835.0,5.00,000.00,031.1,027.4,000.0,039.0,031.4,33.3,0000.0,0004.71,0009.12,0003.89
2023-07-05 01:41:00,SystemResetWarning,0835.0,4.99,000.00,031.1,025.8,000.0,038.9,031.3,33.3,0000.0,0004.64,0008.57,0003.89
2023-07-05 01:42:00,SystemResetWarning,0835.0,5.01,000.00,031.0,025.2,000.0,038.8,031.0,33.3,0000.0,0004.61,0008.36,0003.90
2023-07-05 01:43:00,SystemResetWarning,0835.2,5.02,000.00,030.8,025.4,000.0,038.8,030.8,33.9,0000.0,0004.68,0008.60,0003.92
2023-07-05 01:44:00,SystemResetWarning,0835.3,4.99,000.00,030.7,025.8,000.0,038.9,030.8,34.3,0000.0,0004.71,0008.66,0003.95
2023-07-05 01:45:00,SystemResetWarning,0835.3,5.00,000.00,030.6,026.2,000.0,038.9,030.9,34.4,0000.0,0004.72,0008.62,0003.97
2023-07-05 01:46:00,SystemResetWarning,0835.5,5.01,000.00,030.6,026.6,000.0,038.9,031.0,34.5,0000.0,0004.74,0008.61,0003.98
2023-07-05 01:47:00,SystemResetWarning,0835.4,5.00,000.00,030.5,026.9,000.0,038.9,031.1,34.6,0000.0,0004.78,0008.61,0003.99
2023-07-05 01:48:00,SystemResetWarning,0835.5,4.99,000.00,030.5,027.2,000.0,038.9,031.1,34.8,0000.0,0004.82,0008.60,0004.02
2023-07-05 01:49:00,SystemResetWarning,0835.5,5.00,000.00,030.5,027.5,000.0,038.9,031.2,34.9,0000.0,0004.83,0008.62,0004.04
2023-07-05 01:50:00,SystemResetWarning,0835.5,4.99,000.00,030.5,027.7,000.0,038.9,031.2,35.0,0000.0,0004.82,0008.75,0004.05
2023-07-05 01:51:00,SystemResetWarning,0835.5,5.02,000.00,030.6,027.9,000.0,038.9,031.3,35.1,0000.0,0004.86,0008.96,0004.07
2023-07-05 01:52:00,SystemResetWarning,0835.5,5.01,000.00,030.9,028.0,000.0,038.9,031.5,34.9,0000.0,0004.96,0009.30,0004.11
2023-07-05 01:53:00,SystemResetWarning,0835.5,4.98,000.00,031.1,028.2,000.0,038.9,031.6,34.4,0000.0,0005.07,0009.54,0004.14
2023-07-05 01:54:00,SystemResetWarning,0835.4,5.02,000.00,031.2,028.3,000.0,038.9,031.6,34.2,0000.0,0005.07,0009.72,0004.15
2023-07-05 01:55:00,SystemResetWarning,0835.4,4.99,000.00,031.3,028.4,000.0,039.0,031.6,34.2,0000.0,0005.10,0009.83,0004.15
2023-07-05 01:56:00,SystemResetWarning,0835.3,4.99,000.00,031.3,028.5,000.0,039.0,031.6,34.2,0000.0,0005.17,0010.29,0004.16
2023-07-05 01:57:00,SystemResetWarning,0835.2,5.00,000.00,031.4,027.7,000.0,039.0,031.6,34.2,0000.0,0005.23,0010.92,0004.16
2023-07-05 01:58:00,SystemResetWarning,0835.2,5.00,000.00,031.4,025.9,000.0,038.9,031.4,34.2,0000.0,0005.25,0010.99,0004.18
2023-07-05 01:59:00,SystemResetWarning,0834.9,5.01,000.00,031.3,025.3,000.0,038.9,031.2,34.2,0000.0,0005.22,0010.89,0004.18
